STARLINK-35029 (65445 NORAD) Tracking and Keplerian Element Data

This shows tracking and keplerian element data for the satellite.

Feedback or suggestion? Click here.




ElementValue
Catalog65445
NameSTARLINK-35029
Epoch Orbit1768
Epoch Day354.17383329
Epoch Year2025
RAAN206.0257
Inclination97.6023
Eccentricity0.0001976
Argument of Perigee86.497
Mean Anonmoly273.6483
Mean Motion15.05648153
Decay Rate4.565E-05
L11 65445U 25194M 25354.17383329 .00004565 00000+0 32037-3 0 9997
L22 65445 97.6023 206.0257 0001976 86.4970 273.6483 15.05648153 17685



Live tracking and technical data element details for STARLINK-35029 (NORAD 65445). STARLINK-35029 can be tracked NOW for your location showing map with azimuth and elevation plus other details from your city location.







IsCatalogInMostPopularTable: catalog: 65445, numindb: 5
Update: records affected: 1



GetName: 65445 STARLINK-35029

Hit Count: updated at: Tue, 10 Feb 2026 02:37:32 GMT